Back to catalog

MOLNIYA 1-29

AliveCommunicationsHEO
NORAD 7780·PAYLOAD·🇷🇺 Russia

Launched Apr 29, 1975 from Plesetsk Cosmodrome

Loading…

Next Passes (next 24 hours)

TLE

FreshSource: Space-Track

Epoch: Sep 14, 2026, 11:21 UTC

1 07780U 75036A   26257.47302599 -.00000151  00000-0 -25347-1 0  9995
2 07780  64.2118  50.8652 6941164 278.1942  14.7195  2.00627497376714

Track MOLNIYA 1-29 in real time with AllMySat

Download on the App Store